Regional Weather Roundup
Issued by NWS

Home | Current Version | Previous Version | Text Only | Print | Product List | Glossary On
Versions: 1 2 3 4 5 6 7 8 9 10 11 12 13 14 15 16 17 18 19 20 21 22 23 24 25 26 27 28 29 30 31 32 33 34 35 36 37 38 39 40 41 42 43 44 45 46 47 48 49 50
000
ASUS46 KSEW 291210
RWRWA

WASHINGTON REGIONAL WEATHER ROUNDUP
NATIONAL WEATHER SERVICE SEATTLE WA
500 AM PDT TUE JUL 29 2014

NOTE:"FAIR" INDICATES FEW OR NO CLOUDS BELOW 12,000 FEET WITH NO
SIGNIFICANT WEATHER AND/OR OBSTRUCTIONS TO VISIBILITY.

WAZ505-507>509-291300-
SEATTLE, TACOMA, EVERETT, AND VICINITY

CITY           SKY/WX    TMP DP  RH WIND       PRES   REMARKS
EVERETT        CLEAR     59  52  77 NE5       30.12R
6HR MIN TEMP:  59; 6HR MAX TEMP:  66;

BOEING FIELD   CLEAR     64  53  67 CALM      30.10R
6HR MIN TEMP:  64; 6HR MAX TEMP:  74;

RENTON         CLEAR     62  56  80 SE3       30.10R
6HR MIN TEMP:  61; 6HR MAX TEMP:  72;

SEATAC AIRPORT CLEAR     60  53  77 S3        30.12R
6HR MIN TEMP:  60; 6HR MAX TEMP:  74;

JBLM-MCCHORD   CLEAR     53  51  94 S2        30.12R
6HR MIN TEMP:  53; 6HR MAX TEMP:  71;

PUYALLUP       FAIR      54  54 100 CALM      30.12S
JBLM-FT LEWIS  CLEAR     54  50  88 SE5       30.11R
6HR MIN TEMP:  54; 6HR MAX TEMP:  72;

TACOMA NARROWS CLEAR     59  52  77 CALM      30.12R
6HR MIN TEMP:  59; 6HR MAX TEMP:  70;

$$

WAZ001-503-506-510-514-515-291300-
NORTH INTERIOR

CITY           SKY/WX    TMP DP  RH WIND       PRES   REMARKS
BELLINGHAM     CLEAR     58  54  86 S3        30.09R
6HR MIN TEMP:  54; 6HR MAX TEMP:  65;

FRIDAY HARBOR  CLEAR     50  48  93 CALM      30.11R
6HR MIN TEMP:  49; 6HR MAX TEMP:  55;

EASTSOUND      CLEAR     55  52  88 MISG      30.08R
PORT ANGELES   MOCLDY    53  51  93 NW7       30.12R FOG
6HR MIN TEMP:  52; 6HR MAX TEMP:  57;

NAS WHIDBEY    MOCLDY    54  51  90 S7        30.12R
6HR MIN TEMP:  54; 6HR MAX TEMP:  58;

BURLINGTON     CLEAR     54  54 100 SE5       30.12R
$$

WAZ020-022-039-040-504-511-512-291300-
SOUTHWEST INTERIOR

CITY           SKY/WX    TMP DP  RH WIND       PRES   REMARKS
SHELTON        CLOUDY    54  53  97 W6        30.10S FOG
6HR MIN TEMP:  54; 6HR MAX TEMP:  62;

OLYMPIA        CLEAR     54  52  93 CALM      30.12R
6HR MIN TEMP:  52; 6HR MAX TEMP:  70;

CHEHALIS       FAIR      55  55 100 CALM      30.12R
KELSO          CLEAR     57  52  82 NE5       30.15R
6HR MIN TEMP:  57; 6HR MAX TEMP:  68;

VANCOUVER      CLEAR     64  51  62 CALM      30.08R
6HR MIN TEMP:  64; 6HR MAX TEMP:  76;

SCAPPOOSE, OR  CLEAR     61  51  70 N7        30.08R
6HR MIN TEMP:  61; 6HR MAX TEMP:  74;

PORTLAND, OR   CLEAR     65  53  65 N3        30.09R
6HR MIN TEMP:  65; 6HR MAX TEMP:  76;

$$

WAZ021-516-517-291300-
WASHINGTON COAST

CITY           SKY/WX    TMP DP  RH WIND       PRES   REMARKS
FORKS          CLOUDY    56  55  97 CALM      30.15R
6HR MIN TEMP:  53; 6HR MAX TEMP:  56;

HOQUIAM        CLOUDY    53  53 100 W3        30.14R FOG
6HR MIN TEMP:  53; 6HR MAX TEMP:  56;

ASTORIA, OR    CLOUDY    57  54  89 W7        30.14R
6HR MIN TEMP:  56; 6HR MAX TEMP:  58;

$$

WAZ019-023-024-040-518-519-291300-
CASCADE MOUNTAINS AND COLUMBIA GORGE

CITY           SKY/WX    TMP DP  RH WIND       PRES   REMARKS
STAMPEDE PASS  NOT AVBL
TROUTDALE, OR  CLEAR     60  57  89 CALM      30.07R
6HR MIN TEMP:  59; 6HR MAX TEMP:  76;

THE DALLES, OR CLEAR     68  54  60 VRB3      30.00R
6HR MIN TEMP:  65; 6HR MAX TEMP:  82;

$$

WAZ026-027-041>044-520-521-291300-
EAST SLOPES

CITY           SKY/WX    TMP DP  RH WIND       PRES   REMARKS
OMAK           CLEAR     72  40  31 N8        30.03R
6HR MIN TEMP:  70; 6HR MAX TEMP:  79;

WENATCHEE      CLEAR     75  52  44 W7        30.02R
6HR MIN TEMP:  74; 6HR MAX TEMP:  85;

ELLENSBURG     CLEAR     63  51  65 CALM      30.06R
6HR MIN TEMP:  62; 6HR MAX TEMP:  77;

YAKIMA         CLEAR     63  53  70 W8        30.02R
6HR MIN TEMP:  63; 6HR MAX TEMP:  85;

$$

WAZ028-034-035-291300-
COLUMBIA BASIN

CITY           SKY/WX    TMP DP  RH WIND       PRES   REMARKS
EPHRATA        CLEAR     69  41  36 CALM      30.00R
6HR MIN TEMP:  69; 6HR MAX TEMP:  88;

MOSES LAKE     CLEAR     63  44  50 CALM      30.00R
6HR MIN TEMP:  62; 6HR MAX TEMP:  82;

PASCO          CLEAR     60  56  86 N5        29.97R
6HR MIN TEMP:  59; 6HR MAX TEMP:  73;

HERMISTON, OR  CLEAR     61  47  59 CALM      29.98R
6HR MIN TEMP:  61; 6HR MAX TEMP:  78;

$$

WAZ036>038-291300-
NORTHEAST WASHINGTON

CITY           SKY/WX    TMP DP  RH WIND       PRES   REMARKS
SPOKANE GEIGER PTCLDY    68  47  46 NE5       30.07R
6HR MIN TEMP:  68; 6HR MAX TEMP:  84;

SPOKANE FELTS  CLEAR     62  51  67 CALM      30.07R
6HR MIN TEMP:  61; 6HR MAX TEMP:  74;

FAIRCHILD AFB  CLEAR     67  46  47 NE2       30.08R
6HR MIN TEMP:  66; 6HR MAX TEMP:  79;

COEURDALENE,ID CLEAR     64  52  63 SE9       30.08S
6HR MIN TEMP:  61; 6HR MAX TEMP:  70;

DEER PARK      CLEAR     57  48  72 NW5       30.08R
6HR MIN TEMP:  57; 6HR MAX TEMP:  67;

$$

WAZ029>033-291300-
SOUTHEAST WASHINGTON

CITY           SKY/WX    TMP DP  RH WIND       PRES   REMARKS
PULLMAN        CLEAR     57  46  66 CALM      30.10R
6HR MIN TEMP:  54; 6HR MAX TEMP:  65;

LEWISTON, ID   CLEAR     71  44  37 CALM      30.02R
6HR MIN TEMP:  71; 6HR MAX TEMP:  86;

WALLA WALLA    CLEAR     73  46  38 SE7       30.02R
6HR MIN TEMP:  70; 6HR MAX TEMP:  82;

PENDLETON, OR  CLEAR     68  43  40 SE8       30.03R
6HR MIN TEMP:  66; 6HR MAX TEMP:  77;

$$


USA.gov is the U.S. government's official web portal to all federal, state and local government web resources and services.